TimeCDT,TemperatureF,Dew PointF,Humidity,Sea Level PressureIn,VisibilityMPH,Wind Direction,Wind SpeedMPH,Gust SpeedMPH,PrecipitationIn,Events,Conditions,WindDirDegrees,DateUTC
12:15 AM,75.2,73.4,94,30.00,8.0,SSE,6.9,-,N/A,,Overcast,150,2013-05-20 05:15:00
12:35 AM,75.2,71.6,89,29.99,7.0,SSE,10.4,-,N/A,,Overcast,150,2013-05-20 05:35:00
12:55 AM,75.2,71.6,89,29.99,8.0,SSE,9.2,-,N/A,,Overcast,160,2013-05-20 05:55:00
1:15 AM,75.2,71.6,89,29.99,7.0,SSE,8.1,16.1,N/A,,Overcast,150,2013-05-20 06:15:00
1:35 AM,75.2,71.6,89,29.99,7.0,SE,6.9,-,N/A,,Mostly Cloudy,140,2013-05-20 06:35:00
1:55 AM,75.2,71.6,89,29.99,7.0,SE,8.1,-,N/A,,Mostly Cloudy,140,2013-05-20 06:55:00
2:15 AM,75.2,71.6,89,29.99,8.0,SE,4.6,-,N/A,,Mostly Cloudy,130,2013-05-20 07:15:00
2:35 AM,73.4,71.6,94,29.99,8.0,SE,5.8,-,N/A,,Mostly Cloudy,130,2013-05-20 07:35:00
3:15 AM,73.4,71.6,94,30.00,9.0,SE,8.1,-,N/A,,Mostly Cloudy,140,2013-05-20 08:15:00
3:35 AM,73.4,71.6,94,29.99,8.0,SE,6.9,-,N/A,,Overcast,140,2013-05-20 08:35:00
3:55 AM,73.4,71.6,94,30.00,9.0,SE,5.8,-,N/A,,Overcast,140,2013-05-20 08:55:00
4:35 AM,73.4,71.6,94,30.00,8.0,SSE,8.1,-,N/A,,Mostly Cloudy,150,2013-05-20 09:35:00
4:55 AM,73.4,71.6,94,30.00,9.0,SSE,5.8,-,N/A,,Mostly Cloudy,150,2013-05-20 09:55:00
5:15 AM,73.4,71.6,94,30.00,9.0,SSE,5.8,-,N/A,,Mostly Cloudy,160,2013-05-20 10:15:00
5:35 AM,73.4,71.6,94,30.00,9.0,SSE,6.9,-,N/A,,Overcast,160,2013-05-20 10:35:00
5:55 AM,73.4,71.6,94,30.00,9.0,SSE,8.1,-,N/A,,Overcast,150,2013-05-20 10:55:00
6:15 AM,73.4,71.6,94,30.01,7.0,SSE,9.2,-,N/A,,Mostly Cloudy,150,2013-05-20 11:15:00
6:35 AM,73.4,71.6,94,30.02,7.0,SSE,5.8,-,N/A,,Mostly Cloudy,150,2013-05-20 11:35:00
6:55 AM,73.4,71.6,94,30.02,7.0,SE,6.9,-,N/A,,Mostly Cloudy,140,2013-05-20 11:55:00
7:15 AM,73.4,71.6,94,30.02,7.0,SSE,10.4,-,N/A,,Mostly Cloudy,160,2013-05-20 12:15:00
7:35 AM,73.4,71.6,94,30.02,7.0,SSE,6.9,-,N/A,,Mostly Cloudy,160,2013-05-20 12:35:00
7:55 AM,75.2,71.6,89,30.03,8.0,SSE,5.8,-,N/A,,Scattered Clouds,160,2013-05-20 12:55:00
8:15 AM,75.2,71.6,89,30.03,8.0,South,10.4,-,N/A,,Mostly Cloudy,170,2013-05-20 13:15:00
8:35 AM,75.2,71.6,89,30.03,8.0,SSE,9.2,-,N/A,,Mostly Cloudy,160,2013-05-20 13:35:00
9:15 AM,78.8,71.6,78,30.03,8.0,SSE,11.5,-,N/A,,Mostly Cloudy,160,2013-05-20 14:15:00
9:35 AM,78.8,71.6,78,30.04,8.0,South,9.2,-,N/A,,Scattered Clouds,170,2013-05-20 14:35:00
9:55 AM,78.8,71.6,78,30.04,8.0,South,4.6,-,N/A,,Scattered Clouds,170,2013-05-20 14:55:00
10:35 AM,82.4,71.6,70,30.03,8.0,SSW,9.2,18.4,N/A,,Mostly Cloudy,200,2013-05-20 15:35:00
10:55 AM,82.4,71.6,70,30.03,9.0,South,10.4,-,N/A,,Mostly Cloudy,190,2013-05-20 15:55:00
11:15 AM,84.2,71.6,66,30.03,8.0,SSE,12.7,18.4,N/A,,Scattered Clouds,160,2013-05-20 16:15:00
11:35 AM,84.2,71.6,66,30.03,9.0,South,12.7,-,N/A,,Mostly Cloudy,170,2013-05-20 16:35:00
11:55 AM,84.2,71.6,66,30.03,9.0,South,10.4,18.4,N/A,,Partly Cloudy,170,2013-05-20 16:55:00
12:15 PM,84.2,69.8,62,30.02,9.0,South,10.4,-,N/A,,Scattered Clouds,190,2013-05-20 17:15:00
12:35 PM,84.2,69.8,62,30.02,9.0,South,9.2,-,N/A,,Scattered Clouds,170,2013-05-20 17:35:00
1:15 PM,87.8,71.6,58,30.01,6.0,South,8.1,-,N/A,,Haze,170,2013-05-20 18:15:00
1:55 PM,87.8,71.6,58,30.00,9.0,SSE,6.9,-,N/A,,Partly Cloudy,150,2013-05-20 18:55:00
2:15 PM,87.8,71.6,58,29.99,9.0,SSE,5.8,-,N/A,,Scattered Clouds,160,2013-05-20 19:15:00
2:35 PM,87.8,71.6,58,29.99,9.0,SSE,8.1,-,N/A,,Scattered Clouds,160,2013-05-20 19:35:00
2:55 PM,87.8,71.6,58,29.98,9.0,South,11.5,-,N/A,,Clear,180,2013-05-20 19:55:00
3:15 PM,89.6,71.6,55,29.98,10.0,SSE,8.1,-,N/A,,Clear,150,2013-05-20 20:15:00
3:35 PM,87.8,71.6,58,29.97,10.0,SSE,5.8,-,N/A,,Scattered Clouds,160,2013-05-20 20:35:00
3:55 PM,87.8,71.6,58,29.96,9.0,South,5.8,-,N/A,,Partly Cloudy,180,2013-05-20 20:55:00
4:15 PM,87.8,71.6,58,29.96,9.0,SSE,6.9,-,N/A,,Scattered Clouds,150,2013-05-20 21:15:00
4:35 PM,89.6,71.6,55,29.96,9.0,SE,9.2,-,N/A,,Scattered Clouds,130,2013-05-20 21:35:00
4:55 PM,87.8,71.6,58,29.95,8.0,SSE,6.9,-,N/A,,Partly Cloudy,150,2013-05-20 21:55:00
5:15 PM,87.8,71.6,58,29.94,10.0,SE,5.8,17.3,N/A,,Clear,130,2013-05-20 22:15:00
5:35 PM,86.0,71.6,62,29.94,9.0,SSE,9.2,-,N/A,,Clear,150,2013-05-20 22:35:00
5:55 PM,84.2,73.4,70,29.93,9.0,SE,4.6,-,N/A,,Partly Cloudy,140,2013-05-20 22:55:00
6:15 PM,86.0,73.4,66,29.93,9.0,SSE,9.2,-,N/A,,Partly Cloudy,150,2013-05-20 23:15:00
6:35 PM,84.2,71.6,66,29.92,8.0,SSE,9.2,-,N/A,,Partly Cloudy,150,2013-05-20 23:35:00
6:55 PM,84.2,71.6,66,29.92,8.0,SE,4.6,-,N/A,,Clear,140,2013-05-20 23:55:00
7:15 PM,82.4,71.6,70,29.92,9.0,SSE,9.2,-,N/A,,Clear,150,2013-05-21 00:15:00
7:35 PM,82.4,71.6,70,29.92,9.0,SSE,5.8,-,N/A,,Clear,150,2013-05-21 00:35:00
7:55 PM,80.6,71.6,74,29.93,9.0,SE,8.1,-,N/A,,Clear,140,2013-05-21 00:55:00
8:15 PM,80.6,71.6,74,29.92,10.0,SE,4.6,-,N/A,,Clear,130,2013-05-21 01:15:00
8:35 PM,78.8,71.6,78,29.93,10.0,SE,3.5,-,N/A,,Clear,140,2013-05-21 01:35:00
9:15 PM,78.8,71.6,78,29.95,10.0,SSE,6.9,-,N/A,,Clear,150,2013-05-21 02:15:00
9:35 PM,77.0,71.6,83,29.96,10.0,SE,3.5,-,N/A,,Clear,140,2013-05-21 02:35:00
9:55 PM,77.0,71.6,83,29.96,10.0,SSE,5.8,-,N/A,,Scattered Clouds,150,2013-05-21 02:55:00
10:15 PM,77.0,71.6,83,29.97,9.0,SSE,9.2,-,N/A,,Partly Cloudy,150,2013-05-21 03:15:00
10:35 PM,77.0,73.4,89,29.97,9.0,SE,6.9,-,N/A,,Clear,140,2013-05-21 03:35:00
10:55 PM,75.2,73.4,94,29.98,9.0,SSE,9.2,-,N/A,,Partly Cloudy,150,2013-05-21 03:55:00
11:15 PM,75.2,73.4,94,29.98,9.0,SSE,9.2,-,N/A,,Scattered Clouds,150,2013-05-21 04:15:00
11:35 PM,75.2,73.4,94,29.97,9.0,SSE,9.2,16.1,N/A,,Mostly Cloudy,150,2013-05-21 04:35:00
11:55 PM,75.2,73.4,94,29.98,9.0,SSE,9.2,-,N/A,,Overcast,150,2013-05-21 04:55:00